This demonstration page uses our WeatherBlox Daily Observations layout. Learn more.

Left ArrowRight Arrow

38.20091, -84.87328

Hourly Observations for March 9, 2022

Temp ( °F °C ) Dew Point ( °F °C ) Humidity (%) Winds ( mph kmh ) Pressure ( in mb ) Visibility ( mi km ) Precip ( " mm )
12:53 am 00:53 Cloudy 41 5 32 0 70 70 NE 6 9 29.95 1014 10 16 0.00 0.00
1:53 am 01:53 Cloudy 41 5 33 0.6 73 73 Calm 29.94 1014 10 16 0.00 0.00
2:53 am 02:53 Cloudy with Light Rain 39 3.9 36 2.2 89 89 NW 6 9 29.92 1013 10 16 0.01 0.25
3:53 am 03:53 Cloudy with Light Rain 38 3.3 36 2.2 93 93 NNW 8 13 29.90 1013 8 13 0.05 1.27
4:51 am 04:51 Cloudy with Light Rain 37 3 36 2 93 93 NNW 7 11 29.92 1013 6 10 0.06 1.52
4:53 am 04:53 Cloudy with Light Rain 37 2.8 35 1.7 93 93 NNW 7 11 29.91 1013 6 10 0.06 1.52
5:20 am 05:20 Cloudy with Light Rain 37 2.8 35 1.7 93 93 N 7 11 29.92 1013 6 10 0.03 0.76
5:53 am 05:53 Cloudy with Light Rain 37 2.8 35 1.7 93 93 N 6 9 29.90 1013 6 10 0.04 1.02
6:34 am 06:34 Cloudy with Light Rain 37 2.8 35 1.7 93 93 NNW 6 9 29.95 1014 6 10 0.00 0.00
6:45 am 06:45 Cloudy with Light Rain 36 2.2 35 1.7 97 97 NNW 8 13 29.95 1014 5 8 0.01 0.25
6:53 am 06:53 Cloudy with Light Rain 36 2.2 34 1.1 93 93 NNW 7 11 29.93 1014 6 10 0.01 0.25
7:53 am 07:53 Cloudy with Mist and Fog 36 2.2 34 1.1 93 93 NW 5 7 29.97 1015 6 10 0.02 0.51
8:50 am 08:50 Mostly Cloudy 37 3 36 2 93 93 NW 3 6 30.02 1017 8 13 0.00 0.00
8:53 am 08:53 Cloudy 37 2.8 36 2.2 96 96 NW 6 9 30.00 1016 7 11 0.00 0.00
9:49 am 09:49 Cloudy 39 4 36 2 87 87 N 6 9 30.04 1017 10 16 0.00 0.00
9:53 am 09:53 Cloudy 40 4.4 35 1.7 83 83 NNW 7 11 30.02 1017 10 16 0.00 0.00
10:53 am 10:53 Cloudy 42 5.6 34 1.1 73 73 E 6 9 30.01 1016 10 16 0.00 0.00
11:48 am 11:48 Mostly Cloudy 45 7 36 2 71 71 NNW 5 7 30.04 1017 10 16 0.00 0.00
11:53 am 11:53 Cloudy 44 6.7 34 1.1 68 68 NW 5 7 30.03 1017 10 16 0.00 0.00
12:53 pm 12:53 Mostly Cloudy 46 7.8 35 1.7 66 66 ENE 6 9 30.01 1016 10 16 0.00 0.00
1:22 pm 13:22 Partly Cloudy 48 8.9 33 0.6 56 56 NW 5 7 30.01 1016 10 16 0.00 0.00
1:53 pm 13:53 Mostly Cloudy 49 9.4 33 0.6 55 55 VRB 3 6 29.99 1016 10 16 0.00 0.00
2:53 pm 14:53 Cloudy 50 10 33 0.6 52 52 WNW 8 13 30.01 1016 10 16 0.00 0.00
3:53 pm 15:53 Cloudy 50 10 32 0 50 50 NNW 8 13 30.00 1016 10 16 0.00 0.00
4:53 pm 16:53 Partly Cloudy 51 10.6 30 -1.1 44 44 N 6 9 30.01 1016 10 16 0.00 0.00
5:53 pm 17:53 Mostly Cloudy 48 8.9 32 0 54 54 SW 5 7 30.05 1018 10 16 0.00 0.00
6:53 pm 18:53 Mostly Clear 45 7.2 33 0.6 63 63 Calm 30.07 1018 10 16 0.00 0.00
7:53 pm 19:53 Clear 41 5 34 1.1 76 76 Calm 30.09 1019 10 16 0.00 0.00
8:53 pm 20:53 Clear 39 3.9 33 0.6 79 79 NNE 3 6 30.07 1018 10 16 0.00 0.00
9:53 pm 21:53 Clear 36 2.2 32 0 86 86 Calm 30.09 1019 10 16 0.00 0.00
10:53 pm 22:53 Clear 35 1.7 32 0 89 89 Calm 30.09 1019 10 16 0.00 0.00
11:53 pm 23:53 Clear 34 1.1 31 -0.6 89 89 Calm 30.09 1019 10 16 0.00 0.00

Powered by AerisWeather